Tracking 18980 objects as of 23-Feb-2018
HD Live streaming from Space Station
objects crossing your sky now

COSMOS 2430

Track COSMOS 2430 now!
COSMOS 2430 is classified as:


NORAD ID: 32268
Int'l Code: 2007-049A
Perigee: 187.8 km
Apogee: 39,831.9 km
Inclination: 62.3 °
Period: 710.7 minutes
Semi major axis: 26380 km
RCS: 3.1623 m2 (large)
Launch date: October 23, 2007
Source: Commonwealth of Independent States (former USSR) (CIS)
Launch site: PLESETSK MISSILE AND SPACE COMPLEX (PKMTR)
aabbcc
Your satellite tracking list
Your tracking list is empty




NASA's NSSDC Master Catalog

Two Line Element Set (TLE):
1 32268U 07049A   18052.72941891  .00011862 -12185-5  52769-3 0  9991
2 32268  62.3066 271.0986 7513799 243.4956  24.4548  2.02614131 75721
Source of the keplerian elements: AFSPC